Flag for Sweden Weather past 2 weeks in Gothenburg, Sweden

Now
63 °F

Partly sunny.


Feels Like: 63 °F
Forecast: 54 / 62 °F
Wind: 16 mph from West

Location: Gothenburg / Save

Current Time: Jul 31, 2015 at 2:02:27 PM

Latest Report: Jul 31, 2015 at 1:20 PM


Visibility: N/A

Pressure: 29.77 "Hg

Humidity: 73%

Dew point: 54 °F

Location of GothenburgLocation

Historic Weather in Gothenburg — Graph

°F

Gothenburg temperature yesterday

Maximum temperature yesterday: 64 °F (at 1:50 PM)
Minimum temperature yesterday: 46 °F (at 4:50 AM)
Average temperature yesterday: 57 °F

Past Weeks' High & Low Weather Summary

 TemperatureHumidityPressure
High68 °F (Jul 17, 1:20 PM)100% (Jul 17, 4:50 AM)30.04 "Hg (Jul 17, 4:50 AM)
Low45 °F (Jul 17, 4:50 AM)43% (Jul 17, 1:50 PM)29.33 "Hg (Jul 26, 4:20 AM)
Average59 °F80%29.68 "Hg
* Reported Jul 16 12:20 PM — Jul 31 12:50 PM, Gothenburg, Weather by CustomWeather, © 2015

Note: Actual official high and low records may vary slightly from our data, if they occured in-between our weather recording intervals... More about our weather records

Advertising

Gothenburg weather history for previous 24 hours

 ConditionsComfort  
Time TempWeatherWind HumidityBarometerVisibility
12:50 PM
Fri, Jul 31
63 °FPartly sunny.13 mph73%29.77 "HgN/A
12:20 PM61 °FPartly sunny.15 mph77%29.77 "HgN/A
11:50 AM63 °FPartly sunny.14 mph73%29.74 "HgN/A
11:20 AM61 °FPartly sunny.15 mph72%29.74 "HgN/A
10:50 AM61 °FPartly sunny.13 mph72%29.74 "HgN/A
10:20 AM61 °FPartly sunny.13 mph77%29.74 "HgN/A
9:50 AM59 °FPartly sunny.12 mph82%29.71 "HgN/A
9:20 AM59 °FPartly sunny.12 mph77%29.71 "HgN/A
8:50 AM59 °FPartly sunny.10 mph77%29.71 "HgN/A
8:20 AM59 °FPartly sunny.10 mph77%29.71 "HgN/A
7:50 AM59 °FPartly sunny.9 mph77%29.71 "HgN/A
7:20 AM57 °FPartly sunny.7 mph88%29.68 "HgN/A
6:50 AM57 °FOvercast.8 mph82%29.68 "HgN/A
6:20 AM57 °FOvercast.8 mph82%29.68 "HgN/A
5:50 AM57 °FOvercast.8 mph88%29.68 "HgN/A
5:20 AM57 °FOvercast.7 mph88%29.68 "HgN/A
4:50 AM57 °FOvercast.9 mph88%29.68 "HgN/A
4:20 AM57 °FOvercast.8 mph88%29.68 "HgN/A
3:50 AM57 °FOvercast.8 mph94%29.68 "HgN/A
3:20 AM57 °FLow clouds.9 mph94%29.65 "HgN/A
2:50 AM57 °FLow clouds.8 mph94%29.65 "HgN/A
2:20 AM59 °FLow clouds.6 mph88%29.65 "HgN/A
1:50 AM59 °FLow clouds.6 mph88%29.65 "HgN/A
1:20 AM59 °FOvercast.6 mph88%29.65 "HgN/A
12:20 AM54 °FPassing clouds.6 mph100%29.65 "HgN/A
11:20 PM
Thu, Jul 30
54 °FClear.3 mph94%29.62 "Hg10 mi
10:50 PM55 °FClear.2 mph94%29.62 "Hg10 mi
10:20 PM57 °FSunny.2 mph88%29.62 "Hg10 mi
9:50 PM59 °FSunny.5 mph88%29.62 "Hg10 mi
9:20 PM61 °FSunny.6 mph83%29.62 "Hg10 mi
8:50 PM61 °FSunny.6 mph83%29.62 "Hg10 mi
8:20 PM61 °FSunny.8 mph83%29.62 "Hg10 mi
7:50 PM63 °FSunny.12 mph77%29.59 "Hg10 mi
7:20 PM63 °FSunny.12 mph77%29.59 "Hg10 mi
6:50 PM63 °FSunny.12 mph77%29.59 "Hg10 mi
6:20 PM64 °FSunny.13 mph73%29.59 "Hg10 mi
5:50 PM64 °FSunny.12 mph73%29.59 "Hg10 mi
5:20 PM64 °FSunny.10 mph73%29.56 "Hg10 mi
4:50 PM64 °FSunny.13 mph73%29.56 "Hg10 mi
4:20 PM63 °FPassing clouds.15 mph77%29.56 "HgN/A
3:27 PM64 °FScattered clouds.16 mph78%29.56 "HgN/A
2:50 PM64 °FScattered clouds.16 mph78%29.53 "HgN/A
2:20 PM64 °FScattered clouds.14 mph78%29.53 "HgN/A
Weather by CustomWeather, © 2015

See weather overviewHow to use our weather pages